This is the latest recevied weather packets stored in our database for station/object KO6HRZ. If no packets are shown the sender has not sent any weather packets the latest 10 day(s).
| Time | Temp. | Humidity | Pressure | Rain* | Wind** | Luminosity | Snow |
|---|---|---|---|---|---|---|---|
| 1777737957 | 16.67° C | 79% | 1013.2 hPa | 0 mm | - | 203 W/m² | - |
| 1777737354 | 16.67° C | 78% | 1013.2 hPa | 0 mm | - | 211 W/m² | - |
| 1777736752 | 16.11° C | 81% | 1013.1 hPa | 0 mm | - | 303 W/m² | - |
| 1777736124 | 15.56° C | 82% | 1013 hPa | 0 mm | - | 283 W/m² | - |
| 1777735519 | 15° C | 84% | 1012.9 hPa | 0 mm | - | 190 W/m² | - |
| 1777734919 | 14.44° C | 86% | 1013 hPa | 0 mm | - | 170 W/m² | - |
| 1777734314 | 13.89° C | 87% | 1012.8 hPa | 0 mm | - | 140 W/m² | - |
| 1777733712 | 13.89° C | 87% | 1012.8 hPa | 0 mm | - | 113 W/m² | - |
| 1777733111 | 13.33° C | 88% | 1012.6 hPa | 0 mm | - | 93 W/m² | - |
| 1777732510 | 12.78° C | 89% | 1012.6 hPa | 0 mm | - | 77 W/m² | - |
| 1777731905 | 12.78° C | 90% | 1012.4 hPa | 0 mm | - | 57 W/m² | - |
| 1777731305 | 12.78° C | 90% | 1012.4 hPa | 0 mm | - | 48 W/m² | - |
| 1777730701 | 12.22° C | 91% | 1012.3 hPa | 0 mm | - | 40 W/m² | - |
| 1777730098 | 12.22° C | 91% | 1012.3 hPa | 0 mm | - | 32 W/m² | - |
| 1777729498 | 12.22° C | 91% | 1012.1 hPa | 0 mm | - | 26 W/m² | - |
| 1777728897 | 12.22° C | 91% | 1012.1 hPa | 0 mm | - | 17 W/m² | - |
| 1777728297 | 11.67° C | 91% | 1012.2 hPa | 0 mm | - | 10 W/m² | - |
| 1777727697 | 11.67° C | 92% | 1012 hPa | 0 mm | - | 4 W/m² | - |
| 1777727097 | 11.67° C | 92% | 1011.9 hPa | 0 mm | - | 1 W/m² | - |
| 1777726497 | 11.67° C | 92% | 1011.8 hPa | 0 mm | - | 0 W/m² | - |
| 1777725896 | 11.67° C | 93% | 1011.8 hPa | 0 mm | - | 0 W/m² | - |
| 1777725291 | 11.67° C | 93% | 1011.8 hPa | 0 mm | - | 0 W/m² | - |
| 1777724690 | 11.67° C | 93% | 1011.6 hPa | 0 mm | - | 0 W/m² | - |
| 1777724085 | 11.67° C | 93% | 1011.6 hPa | 0 mm | - | 0 W/m² | - |
| 1777723484 | 11.67° C | 93% | 1011.6 hPa | 0 mm | - | 0 W/m² | - |
* Rain latest hour (hover to see other rain measurements)
** Current wind speed in m/s (hover to see current wind gust speed)